TimeCET,TemperatureF,Dew PointF,Humidity,Sea Level PressureIn,VisibilityMPH,Wind Direction,Wind SpeedMPH,Gust SpeedMPH,PrecipitationIn,Events,Conditions,WindDirDegrees,DateUTC
12:20 AM,51.8,44.6,76,29.56,6.2,South,15.0,-,N/A,,Scattered Clouds,190,2012-12-24 23:20:00
12:50 AM,51.8,44.6,76,29.56,6.2,South,15.0,-,N/A,,Scattered Clouds,190,2012-12-24 23:50:00
1:00 AM,52,45,70,29.57,25,South,15.7,,,,Overcast,190,2012-12-25 00:00:00
1:20 AM,51.8,44.6,76,29.53,6.2,SSW,17.3,-,N/A,,Scattered Clouds,200,2012-12-25 00:20:00
1:50 AM,51.8,44.6,76,29.53,6.2,SSW,15.0,-,N/A,,Scattered Clouds,200,2012-12-25 00:50:00
2:20 AM,51.8,44.6,76,29.50,6.2,SSW,16.1,-,N/A,,Partly Cloudy,200,2012-12-25 01:20:00
2:50 AM,51.8,42.8,71,29.50,6.2,SSW,16.1,-,N/A,,Partly Cloudy,200,2012-12-25 01:50:00
3:20 AM,51.8,42.8,71,29.50,6.2,SSW,16.1,-,N/A,,Partly Cloudy,200,2012-12-25 02:20:00
3:50 AM,50.0,41.0,71,29.47,-9999.0,SSW,16.1,-,N/A,,Clear,200,2012-12-25 02:50:00
4:00 AM,51,41,60,29.50,25,SSW,15.7,,,,Overcast,200,2012-12-25 03:00:00
4:20 AM,50.0,41.0,71,29.47,-9999.0,SSW,16.1,-,N/A,,Clear,200,2012-12-25 03:20:00
4:50 AM,51.8,41.0,67,29.47,-9999.0,SSW,19.6,-,N/A,,Clear,210,2012-12-25 03:50:00
5:20 AM,51.8,41.0,67,29.47,6.2,SSW,23.0,-,N/A,,Partly Cloudy,210,2012-12-25 04:20:00
5:50 AM,51.8,42.8,71,29.47,6.2,SSW,18.4,-,N/A,Rain,Light Rain,210,2012-12-25 04:50:00
6:20 AM,50.0,44.6,82,29.47,6.2,SSW,17.3,-,N/A,Rain,Light Rain,210,2012-12-25 05:20:00
6:50 AM,48.2,46.4,93,29.50,3.7,SW,17.3,-,N/A,Rain,Light Rain,220,2012-12-25 05:50:00
7:00 AM,48,46,88,29.51,4,SW,17.9,,,Rain,Light Rain,220,2012-12-25 06:00:00
7:20 AM,48.2,46.4,93,29.50,3.7,WSW,15.0,-,N/A,Rain,Rain,240,2012-12-25 06:20:00
7:50 AM,46.4,44.6,93,29.53,3.7,West,18.4,-,N/A,Rain,Light Rain,260,2012-12-25 06:50:00
8:20 AM,46.4,42.8,87,29.53,6.2,WSW,17.3,-,N/A,Rain,Light Rain,250,2012-12-25 07:20:00
8:50 AM,46.4,42.8,87,29.56,6.2,SW,13.8,-,N/A,Rain,Light Rain,230,2012-12-25 07:50:00
9:20 AM,46.4,44.6,93,29.56,6.2,SSW,12.7,-,N/A,Rain,Light Rain,210,2012-12-25 08:20:00
9:50 AM,46.4,42.8,87,29.56,6.2,SSW,12.7,-,N/A,Rain,Light Rain,210,2012-12-25 08:50:00
10:00 AM,46,43,85,29.59,8,SSW,13.4,,,Rain,Light Rain,210,2012-12-25 09:00:00
10:20 AM,46.4,42.8,87,29.56,6.2,SSW,12.7,-,N/A,Rain,Light Rain,200,2012-12-25 09:20:00
10:50 AM,46.4,42.8,87,29.56,6.2,SSW,15.0,-,N/A,Rain,Light Rain,200,2012-12-25 09:50:00
11:20 AM,46.4,42.8,87,29.56,6.2,SSW,15.0,-,N/A,Rain,Light Rain,200,2012-12-25 10:20:00
11:50 AM,46.4,42.8,87,29.56,3.7,SSW,15.0,-,N/A,Rain,Rain,200,2012-12-25 10:50:00
12:20 PM,46.4,42.8,87,29.56,6.2,SSW,18.4,-,N/A,Rain,Light Rain,200,2012-12-25 11:20:00
12:50 PM,46.4,42.8,87,29.53,6.2,SSW,17.3,-,N/A,,Partly Cloudy,200,2012-12-25 11:50:00
1:00 PM,47,43,82,29.56,25,SSW,17.9,,,Rain,Light Rain,200,2012-12-25 12:00:00
1:20 PM,46.4,42.8,87,29.53,3.7,SSW,20.7,32.2,N/A,Rain,Light Rain Showers,200,2012-12-25 12:20:00
1:50 PM,46.4,42.8,87,29.53,6.2,SW,18.4,-,N/A,Rain,Light Rain Showers,220,2012-12-25 12:50:00
2:20 PM,48.2,44.6,87,29.53,6.2,SSW,20.7,-,N/A,,Mostly Cloudy,210,2012-12-25 13:20:00
2:50 PM,48.2,42.8,82,29.50,6.2,SSW,20.7,-,N/A,,Mostly Cloudy,200,2012-12-25 13:50:00
3:20 PM,48.2,42.8,82,29.50,6.2,SSW,21.9,-,N/A,,Partly Cloudy,200,2012-12-25 14:20:00
3:50 PM,48.2,42.8,82,29.50,6.2,SSW,21.9,-,N/A,Rain,Light Rain Showers,200,2012-12-25 14:50:00
4:00 PM,48,42,74,,25,SSW,22.4,,,Rain,Light Rain Showers,200,2012-12-25 15:00:00
4:20 PM,48.2,41.0,76,29.50,6.2,SSW,23.0,-,N/A,,Partly Cloudy,210,2012-12-25 15:20:00
4:50 PM,48.2,42.8,82,29.53,6.2,SSW,23.0,34.5,N/A,,Partly Cloudy,210,2012-12-25 15:50:00
5:20 PM,48.2,42.8,82,29.53,6.2,SSW,24.2,-,N/A,,Partly Cloudy,210,2012-12-25 16:20:00
5:50 PM,48.2,42.8,82,29.53,6.2,SW,24.2,-,N/A,Rain,Light Rain Showers,220,2012-12-25 16:50:00
6:20 PM,48.2,42.8,82,29.53,6.2,SW,25.3,36.8,N/A,Rain,Light Rain Showers,220,2012-12-25 17:20:00
6:50 PM,48.2,42.8,82,29.56,6.2,SW,23.0,34.5,N/A,Rain,Light Rain Showers,220,2012-12-25 17:50:00
7:00 PM,48,42,72,29.58,11,SW,22.4,,,Rain,Light Rain Showers,220,2012-12-25 18:00:00
7:20 PM,48.2,42.8,82,29.56,6.2,SW,24.2,36.8,N/A,Rain,Light Rain Showers,220,2012-12-25 18:20:00
7:50 PM,48.2,41.0,76,29.56,6.2,SW,24.2,-,N/A,,Mostly Cloudy,230,2012-12-25 18:50:00
8:20 PM,46.4,41.0,81,29.59,6.2,SW,20.7,-,N/A,,Mostly Cloudy,230,2012-12-25 19:20:00
8:50 PM,46.4,41.0,81,29.59,6.2,SW,23.0,-,N/A,,Scattered Clouds,230,2012-12-25 19:50:00
9:20 PM,46.4,41.0,81,29.59,6.2,SW,23.0,-,N/A,,Scattered Clouds,230,2012-12-25 20:20:00
9:50 PM,46.4,41.0,81,29.62,6.2,SW,21.9,-,N/A,,Mostly Cloudy,230,2012-12-25 20:50:00
10:00 PM,47,41,71,29.63,19,SW,22.4,,,,Partly Cloudy,230,2012-12-25 21:00:00
10:20 PM,46.4,41.0,81,29.62,6.2,SW,19.6,-,N/A,,Mostly Cloudy,230,2012-12-25 21:20:00
10:50 PM,46.4,41.0,81,29.65,6.2,SW,19.6,-,N/A,,Mostly Cloudy,230,2012-12-25 21:50:00
11:20 PM,46.4,41.0,81,29.65,5.0,SW,21.9,-,N/A,Rain,Light Rain Showers,230,2012-12-25 22:20:00
11:50 PM,46.4,42.8,87,29.65,6.2,SW,16.1,-,N/A,,Mostly Cloudy,230,2012-12-25 22:50:00